WEINA 1A (43169 NORAD) Tracking and Keplerian Element Data

This shows tracking and keplerian element data for the satellite.

Feedback or suggestion? Click here.




ElementValue
Catalog43169
NameWEINA 1A
Epoch Orbit440
Epoch Day54.90099949
Epoch Year2018
RAAN7.4992
Inclination35.0014
Eccentricity0.0004227
Argument of Perigee174.5461
Mean Anonmoly185.5303
Mean Motion14.89888716
Decay Rate1E-06
L11 43169U 18011A 18054.90099949 .00000100 00000-0 12998-4 0 9995
L22 43169 35.0014 7.4992 0004227 174.5461 185.5303 14.89888716 4405

Live tracking and technical data element details for WEINA 1A (NORAD 43169). WEINA 1A can be tracked NOW for your location showing map with azimuth and elevation plus other details from your city location.

Track the satellite on the map from your city or location and see movement details for azimuth, elevation, latitude, longitude, range, height, and movement on the map or in text.







IsCatalogInMostPopularTable: catalog: 43169, numindb: 150
Update: records affected: 1



GetName: 43169 WEINA 1A

Hit Count: updated at: Fri, 16 Nov 2018 09:13:03 GMT